Погода в Девице

Россия / Воронежская область     51°38′37″N   38°57′28″E
темп.,
°C
ветер,
м/с
пор.,
м/с
влажн.,
%
обл.,
%
осадки,
мм/ч
давл.,
гПа
погр.,
м
26 февраля, пт
пт2600:00+2зсз41099100 0.0 1019282
03:00+2зсз41199100 0.1 1019241
06:00+2з411100100 0.1 1017221
09:00+3зсз512100100 0.3 1016269
12:00+4з61499100 0.0 1015361
15:00+3з71598100 0.1 1013564
18:00+4з61599100 0.3 1011401
21:00+3зсз61398100 0.3 1011500
27 февраля, сб
сб2700:00+2з41193100 0.0 1010484
03:00+1з41093100 0.0 1010434
06:00+1з51289100 0.0 1008555
09:00+1зсз51292100 0.0 1008673
12:00+1з61297100 0.1 1008579
15:00+1зсз61193100 0.1 1009642
18:00+1сз5119193 0.0 1010599
21:00+1сз5119197 0.0 1012492
28 февраля, вс
вс2800:000ссз3798100 0.3 1013399
03:00−3ссв369097 0.8 1015310
06:00−3с378994 0.1 1016455
09:00−4ссз488591 0.1 1017638
12:00−2ссз368195 0.0 1017593
15:000сз368590 0.1 1017649
18:00−1сз369796 0.3 1017329
21:00−1с239796 0.6 1019141
1 марта, пн
пн100:00−2всв119878 0.1 102031
03:00−3всв229678 0.2 102294
06:00−4всв239490 0.1 1023143
09:00−4св229094 0.2 1025205
12:00−2сз118297 0.0 1026364
15:00−1з238389 0.0 1026471
18:00−1з358596 0.0 1025517
21:00−2зюз398974 0.0 1024329
2 марта, вт
вт200:00−1зюз4990100 0.0 1022377
03:00−1зюз61295100 1.0 1020568
06:00+1з61292100 0.2 1018540
09:00+1з5119198 0.2 1016717
12:00+1зсз51193100 0.0 1014651
15:00+1зсз61296100 0.1 1013750
18:000сз6138994 0.1 1013685
21:000сз6139097 0.1 1014642